CZ-6A R/B, 60214

Orbit data source: Space-Track

CZ-6A R/B, 60214 is space debris in SSO originally from a launch on Thu, 04 Jul 2024 UTC launched from the Taiyaun Space Center, China (TSC). Debris objects in space refer to the collection of defunct objects orbiting the Earth. Examples of debris include non-operational satellites, rocket bodies, and fragments generated from explosions, collisions, or faulty payload assembly.

Loading next visibility...
Identifier
60214, 2024-126D
Orbit
SSO
Country
Flag of CNCN / PRC
Related business
Manufacturer
SAST
Mission
Spacecraft
Bus & Motor
CZ-6A STAGE 2, YF-115
Mass
~6,000 kg wet, ~6,000 kg dry
Launch date (UTC)
2024-07-04 (1 year ago)
Launch vehicle
Unknown
Launch site
Taiyaun Space Center, China (TSC)
Object type
Payload
Rocket body
Debris
Shape & HBR
Unknown shape, 5.5 m
Radar Cross Section
Large (>1 m²)

Expand to show TLE details & history
Last TLE update: 21 hours ago

TLE from 21 hours ago
0 CZ-6A R/B
1 60214U 24126D   25309.04394246  .00003754  00000-0  21052-3 0  9991
2 60214  97.7994 330.2057 0071236 166.2542 194.0650 15.11868290 73540
Epoch: 2025-11-05T01:03Z
TLE epoch observation values (Epoch: 2025-11-05T01:03:16.628Z)
Latitude
0.00002°
Longitude
-90.13586°
Altitude
581.341 km
Speed
7.544 km/s
True Right ascension
22h 00m 49s
True Declination
0° 00' 00"
Sunlit
Object was in daylight at epoch
Visualization orbit readout
Latitude
Unknown
Longitude
Unknown
Altitude
Unknown
Speed
Unknown
Apparent Right ascension
Unknown
Apparent Declination
Unknown
Sunlit
N/A
Visualization observer readout
Local Sidereal Time
17:57:24
Azimuth
Unknown
Elevation
Unknown
Doppler factor
Unknown
Orbital elements
Apogee altitude
576.689 km
Perigee altitude
478.303 km
Semi-major axis
6,905.633 km
Eccentricity
0.00712
Inclination
97.7994°
RAAN
330.2057°
Arg. of periapsis
166.2542°
True anomaly
193.86832°
Mean anomaly
194.065°
Eccentric anomaly
193.96649°
Mean motion
3.78214 °/min
Orbital period
95.18 mins
BSTAR
0.00021052
Loading maneuver chart data...
Computing Atmospheric mass density...
Loading historical data...
Loading historical data...
Loading historical data...
Loading historical data...
Loading historical data...
Loading historical data...
Loading historical data...
Other satellites on launch #126 in the year 2024 (2024-07-04 UTC)

Documentation

Showing up to 5 results
|